Theta_e
317 318 319 322 325 324 324 326 321 323 322 312 313 313 316 320 319 322 322 321 321 320 319 319 319 318 319 321 321 320 320 320 320 317 320 332 328 319 328 331 327 335 333 338 343 337 333 336 341 342 342 341 341 342 341 340 340 341 340 340 340 340 340 339 339 339 339 341 341 340 340 341 340 340 339 339 338 339 338 338 339 340 340 340 341 341 341 340 339 338 337 337 337 336 336 334 333
322 323 323 324 325 324 324 325 318 317 317 311 314 314 315 319 319 321 321 320 321 319 318 318 319 319 319 320 320 320 321 320 321 319 324 329 325 322 322 324 326 334 334 338 344 338 335 337 339 342 342 341 341 341 340 340 340 340 340 339 338 339 339 338 339 338 340 341 341 341 341 341 341 340 340 339 338 338 338 337 339 339 340 340 340 340 339 338 338 337 335 336 336 336 335 333 331
324 325 324 324 324 323 322 324 318 312 312 310 312 317 317 318 319 320 320 319 320 319 317 319 319 319 319 320 320 320 321 321 321 319 324 327 328 330 322 320 324 332 335 337 344 340 338 338 337 341 342 341 341 340 340 340 340 340 339 338 337 338 338 338 338 338 340 341 341 341 341 341 341 340 339 339 338 338 338 337 338 338 339 339 339 338 338 337 337 336 335 336 336 335 334 331 328
323 324 324 324 322 324 323 323 321 313 311 310 310 316 319 317 319 319 319 320 319 319 318 319 320 320 319 320 321 320 321 320 322 320 323 329 331 333 326 319 322 330 336 338 343 341 341 339 336 339 341 341 341 340 340 340 340 340 339 337 336 337 338 338 339 340 340 341 341 341 341 341 340 339 338 337 336 336 337 337 337 338 338 338 338 336 336 335 335 335 335 335 335 334 332 329 324
325 324 323 324 321 324 323 321 320 315 312 312 311 316 319 317 318 318 319 319 319 320 318 319 320 320 319 320 320 319 321 320 323 321 323 330 326 330 329 320 321 331 337 339 342 341 342 340 337 338 340 341 341 341 340 340 340 340 339 337 337 336 337 339 340 341 341 341 341 341 341 340 340 338 337 336 334 334 335 336 336 336 336 336 335 334 333 333 333 332 334 334 333 332 329 324 320
327 324 322 324 322 322 321 318 316 315 317 318 314 316 319 317 319 319 319 320 319 319 317 319 319 320 319 319 320 319 322 320 322 322 324 330 323 325 329 323 324 331 337 339 342 342 341 340 339 338 340 341 341 341 340 340 339 340 339 338 338 337 337 339 341 341 341 341 341 341 341 340 339 337 336 335 333 333 334 335 334 335 335 334 333 332 331 331 330 330 331 331 330 328 323 318 312
326 324 322 321 322 321 318 316 315 315 319 320 316 317 318 317 319 319 320 320 319 319 317 319 318 319 320 319 320 320 322 320 324 326 323 325 321 323 328 327 327 331 336 338 341 342 341 340 339 339 340 341 341 341 340 340 340 340 339 338 339 339 337 339 341 341 341 341 341 341 340 339 338 337 336 334 333 332 332 333 333 333 333 332 331 330 330 329 329 328 328 327 325 320 314 309 304
324 325 323 320 322 323 318 316 317 318 319 319 317 318 318 318 319 319 320 320 320 320 318 319 318 319 320 319 319 320 321 318 322 324 320 319 319 321 327 330 330 331 335 337 340 341 340 340 339 339 340 341 341 341 340 340 340 340 339 338 338 339 338 339 341 341 341 341 340 340 339 338 337 336 335 334 332 331 330 330 331 331 331 330 329 328 328 328 327 326 324 320 315 309 305 301 300
322 322 322 320 321 321 318 317 317 319 320 319 318 317 318 319 319 319 320 320 321 320 320 319 318 319 320 319 319 321 322 318 317 317 316 317 319 319 325 331 331 331 335 338 339 340 339 339 338 339 340 341 341 340 340 340 340 340 339 338 337 338 338 339 341 340 340 340 339 339 338 337 336 335 333 332 331 330 329 329 329 329 329 328 327 327 327 327 326 322 316 310 305 302 300 299 299
321 320 322 322 319 316 314 316 317 319 319 318 318 317 318 318 319 319 319 320 320 320 320 318 318 319 319 319 319 324 323 318 315 316 316 315 319 320 326 332 332 333 336 338 338 339 338 338 338 338 340 340 340 340 340 340 339 339 339 338 337 337 338 339 340 340 339 339 338 337 337 335 334 333 332 331 329 328 328 328 327 327 327 327 327 326 325 325 323 317 309 303 300 299 299 299 299
323 319 321 320 316 313 312 314 316 318 319 318 318 318 318 319 319 319 319 320 320 320 319 317 318 318 319 319 320 325 321 317 317 320 319 315 318 322 329 333 333 335 336 338 337 337 338 338 338 339 340 340 340 340 340 339 339 339 339 338 337 338 338 339 339 339 339 338 337 337 336 335 333 332 331 329 328 326 326 327 327 326 326 326 326 325 325 323 318 312 306 300 299 299 298 299 299
324 321 320 318 316 314 314 315 316 318 319 318 319 319 319 319 318 319 319 320 319 319 319 318 318 318 319 319 321 324 320 318 320 322 320 317 319 323 330 334 334 335 337 337 336 336 337 338 337 339 340 340 340 340 340 339 339 339 338 337 337 338 338 339 338 338 338 337 337 335 334 334 333 332 330 329 327 325 324 326 326 326 326 325 325 324 324 320 315 309 302 298 299 298 298 298 298
323 323 321 318 318 318 316 317 317 319 319 319 319 319 317 318 319 319 318 318 319 319 319 319 318 318 319 319 320 321 320 320 320 319 317 319 325 326 329 334 334 335 336 337 335 335 337 338 338 339 340 339 340 340 340 339 339 339 338 337 337 337 337 338 338 338 337 336 336 334 332 331 331 330 330 329 328 327 323 324 326 325 325 324 324 324 321 317 312 307 299 299 298 298 298 298 298
321 321 321 319 320 320 317 316 317 317 317 319 318 317 317 318 318 318 317 317 318 318 318 318 318 317 318 319 319 320 323 320 317 315 315 320 326 328 330 333 334 334 335 336 334 334 336 337 338 339 339 340 340 340 339 339 339 339 338 337 337 337 337 337 337 337 336 336 335 333 331 330 330 329 329 328 328 327 322 323 325 324 324 324 323 322 319 315 310 303 299 299 298 298 298 298 298
321 321 320 319 319 319 319 318 318 316 316 318 318 317 317 317 317 317 317 317 317 318 317 317 317 317 317 318 319 322 322 318 316 315 316 318 322 327 329 331 332 332 334 335 334 334 336 336 337 338 338 339 339 339 339 339 338 338 338 337 337 336 336 336 336 335 335 334 333 332 330 329 329 328 328 327 327 325 319 321 323 323 323 323 322 319 316 312 306 301 299 298 298 298 298 298 298
321 321 321 320 317 317 320 321 319 317 317 319 317 317 317 316 317 316 317 316 316 318 317 317 316 317 317 317 319 322 319 316 316 316 319 320 321 325 327 329 331 331 332 333 334 334 335 336 336 336 337 338 338 338 338 338 338 337 337 336 336 335 335 335 334 334 334 332 331 330 329 328 327 327 327 325 325 321 316 319 320 321 323 322 320 317 313 309 303 300 298 298 298 298 298 298 298
320 321 321 319 317 316 320 321 318 317 317 318 317 317 316 316 317 316 315 315 315 317 317 317 317 317 316 317 319 320 317 315 316 319 323 324 324 326 327 329 330 331 332 332 333 334 335 335 335 335 335 336 337 337 337 337 337 337 336 336 335 334 333 332 331 332 332 330 329 329 328 328 327 326 326 325 324 320 315 317 318 319 322 321 319 315 311 305 300 298 297 298 298 298 298 299 299
319 321 320 318 318 317 320 320 317 317 318 317 317 317 316 316 317 316 315 315 316 316 317 317 317 318 317 318 320 318 317 317 319 321 325 327 326 326 327 328 329 331 332 332 332 333 334 335 335 335 335 335 335 336 336 336 336 335 335 335 334 333 332 331 331 330 330 329 328 328 327 327 326 326 326 324 324 320 316 316 316 318 320 320 317 313 309 303 299 297 297 298 297 297 298 299 299
320 321 320 319 320 319 319 319 316 316 317 317 316 317 317 317 317 316 316 316 316 316 317 317 317 317 318 318 319 319 317 319 321 321 322 325 326 325 326 328 329 330 332 332 332 332 333 334 334 334 334 334 334 335 335 334 334 334 333 334 333 332 331 330 330 329 329 329 328 327 327 326 326 326 325 324 322 321 318 315 315 316 319 319 316 312 308 301 297 297 297 297 297 297 298 298 299
319 320 320 320 320 320 319 319 317 317 316 317 316 316 317 317 316 316 316 316 316 316 317 317 317 317 318 318 318 319 318 319 321 320 320 322 324 324 325 327 329 329 330 332 332 332 332 333 334 334 334 334 333 333 333 332 333 333 332 332 332 331 330 329 329 329 328 328 328 327 326 326 326 326 325 323 321 321 320 317 314 315 317 317 314 311 306 300 297 297 297 296 296 297 297 298 298
319 321 320 319 319 319 319 318 317 317 317 317 316 316 316 316 316 316 316 316 316 316 317 317 316 317 317 317 318 318 319 319 319 321 321 320 322 322 322 324 327 328 329 330 332 332 331 332 333 333 333 334 333 332 332 332 332 332 331 330 330 330 329 329 329 329 328 328 327 326 326 326 325 325 324 322 321 320 320 317 315 316 317 316 314 310 305 299 297 297 297 296 296 297 297 297 298
320 320 320 318 317 318 318 317 317 317 317 316 316 316 317 317 317 316 316 316 316 316 316 316 316 316 316 316 317 318 319 318 318 319 320 320 320 321 321 321 323 326 328 329 330 331 331 331 332 333 333 334 333 332 332 331 331 330 330 330 330 329 329 329 328 328 328 327 327 326 325 325 324 324 323 321 320 319 319 317 316 317 317 316 312 311 308 300 297 297 296 297 297 297 297 298 298
319 318 317 317 317 318 317 317 317 317 316 316 316 316 317 317 316 316 316 316 316 316 316 316 316 316 317 317 317 317 317 317 317 318 319 320 320 320 320 320 321 323 327 328 328 330 331 330 331 332 332 333 332 332 331 331 330 330 330 330 330 329 328 328 327 328 328 327 326 325 325 324 324 323 321 320 319 317 318 318 317 317 317 316 312 312 311 302 297 297 296 297 297 298 299 299 298
318 316 316 316 316 317 317 317 317 317 317 316 316 316 316 316 316 316 316 317 317 317 317 317 316 317 317 317 316 317 317 317 317 318 318 318 319 320 320 320 320 321 325 328 327 328 329 329 329 330 331 331 332 331 331 331 330 330 330 330 329 329 328 328 327 327 327 326 326 325 325 324 323 321 320 319 318 316 318 318 317 317 317 316 312 311 310 302 297 297 296 298 298 299 299 298 298
318 317 316 316 316 317 317 316 316 317 317 316 316 316 316 316 316 316 316 316 316 317 317 316 316 317 317 316 316 316 317 317 317 317 318 318 318 319 319 320 320 320 322 325 326 326 327 328 327 329 330 330 331 330 330 330 329 330 329 329 329 328 328 328 327 326 326 326 325 325 324 323 322 321 319 318 317 316 318 318 317 317 316 315 311 309 305 299 297 296 297 298 298 298 298 297 298
316 317 316 316 316 316 316 315 315 316 316 315 315 315 315 315 315 315 315 316 316 316 316 316 316 316 316 316 316 316 316 316 317 317 317 318 319 319 319 320 320 321 320 321 324 325 325 326 326 327 327 328 329 329 329 329 328 329 329 329 328 328 327 327 326 326 325 324 325 324 324 322 321 320 318 317 316 316 317 317 317 315 314 312 309 306 302 298 297 296 297 297 297 297 297 297 297
315 315 315 314 314 314 314 314 314 315 315 315 315 315 315 315 315 314 315 315 316 316 315 316 315 315 315 315 315 315 316 315 316 317 317 317 318 319 319 319 320 320 320 320 321 323 323 324 326 325 325 326 327 328 328 327 328 328 328 328 328 328 327 326 326 325 325 323 323 324 323 322 320 318 317 316 316 315 315 315 314 313 311 309 306 304 300 297 296 296 297 297 297 296 296 296 296
314 314 313 313 313 314 314 314 314 315 315 314 314 314 314 314 314 314 315 315 315 315 315 315 314 315 315 315 316 315 316 316 316 316 317 317 317 319 319 319 319 319 319 319 319 321 322 323 324 323 324 325 326 326 326 326 327 327 328 328 327 327 326 326 325 325 324 323 323 322 322 322 321 318 316 315 314 314 314 313 312 310 308 306 304 302 300 297 296 296 296 297 297 296 296 296 295
313 312 313 313 314 314 314 314 315 315 315 314 313 313 313 314 314 315 315 316 316 315 314 315 314 315 315 315 315 316 316 316 317 317 317 316 316 316 317 317 318 318 318 317 318 319 321 322 322 323 324 325 324 325 325 325 326 327 327 327 327 326 325 325 324 324 324 323 322 321 321 321 321 318 315 314 312 312 311 310 309 308 307 305 303 301 299 297 296 296 297 297 297 296 296 296 295
312 312 313 313 314 314 315 316 315 315 314 313 312 311 312 315 315 315 316 316 315 314 314 314 314 314 314 315 315 315 316 316 316 317 317 316 316 315 315 315 316 317 318 318 318 317 319 319 320 322 323 324 324 324 325 325 325 326 326 326 326 325 325 324 323 323 323 322 321 319 319 320 320 318 314 312 311 310 309 308 307 306 305 303 301 300 299 297 296 296 297 296 296 296 296 296 295
313 313 313 314 313 314 316 316 314 314 313 312 312 310 312 314 315 315 316 315 314 314 314 314 314 314 314 314 315 314 315 315 315 316 316 315 316 315 314 314 314 314 316 317 317 317 318 318 318 320 321 323 324 324 325 325 325 325 325 325 325 324 324 323 322 322 322 321 320 318 318 319 319 318 314 312 310 309 308 307 306 305 304 302 301 299 298 297 295 296 296 296 295 295 295 295 294
314 314 313 314 314 314 318 316 314 314 312 311 312 311 312 314 314 315 315 314 314 313 313 313 313 314 314 314 314 314 315 315 316 316 315 315 315 314 314 314 313 313 313 314 317 316 317 318 318 318 319 321 323 324 324 325 325 324 324 324 324 324 323 323 322 321 321 320 319 318 317 317 318 317 315 312 310 308 307 306 305 304 303 301 300 299 298 297 295 295 295 295 295 295 295 295 294
315 314 313 315 314 314 317 317 316 315 313 311 312 312 312 313 314 314 314 314 314 313 314 314 314 314 314 314 314 314 315 315 316 316 315 315 314 313 313 313 312 312 312 313 314 316 316 317 317 316 317 319 321 323 323 323 324 324 324 324 323 323 322 322 321 320 320 320 318 317 316 317 317 317 315 312 310 308 306 305 304 303 302 301 300 299 298 297 295 295 295 295 295 295 296 295 294
315 316 315 315 316 315 314 316 316 315 313 312 313 312 312 313 313 313 313 314 314 313 314 314 314 314 314 314 315 315 315 315 315 315 315 314 313 313 313 313 312 312 312 312 313 314 315 315 316 316 316 318 319 321 322 322 323 322 323 323 322 322 322 321 320 320 320 319 317 316 316 316 316 316 315 313 311 308 306 304 303 303 302 301 300 299 298 296 295 295 295 295 295 296 296 295 295
315 316 315 315 316 315 314 315 316 315 314 315 314 313 313 314 314 314 314 314 314 313 314 314 314 314 314 315 315 315 315 315 315 315 315 314 314 314 313 312 312 312 311 311 312 312 313 314 315 315 315 316 318 319 320 321 321 321 321 321 321 321 321 320 320 319 319 318 317 315 315 315 315 315 315 313 311 308 306 304 303 302 301 300 300 299 297 296 295 295 295 295 295 296 296 295 295
316 316 315 314 314 314 314 315 316 316 315 315 315 314 314 314 314 314 314 314 314 314 314 314 314 315 315 315 316 316 316 315 315 315 315 315 314 314 313 312 312 311 310 310 310 311 312 313 314 314 313 314 315 317 318 319 320 320 320 320 320 320 319 319 319 319 318 317 316 315 315 314 314 314 314 313 312 309 306 304 303 301 300 300 299 298 297 296 295 295 295 295 295 296 296 296 296
316 316 315 315 314 314 315 316 316 316 315 314 314 314 313 314 313 313 313 314 313 313 314 314 315 316 316 316 317 317 316 315 316 316 315 314 314 314 313 312 311 311 310 309 309 310 311 312 312 313 312 312 314 315 317 318 318 318 319 318 319 318 318 317 317 317 317 316 315 314 313 313 313 312 313 313 311 309 306 304 302 301 300 299 298 298 297 296 295 295 295 295 295 295 296 296 296
315 315 314 314 314 315 316 317 317 316 314 314 314 313 313 313 313 313 313 314 314 313 314 315 315 316 317 317 317 316 315 316 316 315 314 314 313 313 312 312 312 311 310 309 310 310 310 310 311 312 312 311 312 313 314 316 316 317 317 317 317 317 317 316 316 316 315 314 314 313 312 311 311 311 311 311 310 308 306 304 302 300 299 298 298 297 296 296 295 295 295 295 295 294 295 296 296
314 314 314 315 315 316 317 317 316 314 313 313 314 313 313 313 313 314 314 314 315 315 315 316 316 317 317 316 315 315 315 315 314 313 313 313 312 311 311 311 310 309 309 309 309 309 309 310 310 310 311 310 310 310 312 313 314 315 315 315 315 316 315 315 314 314 313 313 312 311 311 310 310 310 309 309 308 307 306 304 302 300 299 298 297 297 296 296 295 295 295 295 294 294 295 295 295
315 315 315 315 316 317 316 317 315 313 313 313 314 313 314 315 315 315 316 315 315 316 316 317 317 316 316 315 315 315 315 314 313 312 311 311 311 310 309 309 308 308 308 308 308 308 308 309 309 309 310 309 309 309 309 310 312 313 313 313 312 313 313 312 311 311 311 311 310 310 310 310 310 309 309 308 308 307 306 304 302 300 299 297 297 296 296 296 295 295 295 295 295 294 295 295 294
316 316 316 316 317 317 316 316 315 314 314 314 313 314 315 316 317 316 316 317 316 317 317 317 317 316 315 315 314 315 314 313 312 311 310 310 310 309 308 308 308 307 307 307 307 307 307 307 308 308 309 308 308 308 308 308 309 310 311 310 309 309 309 309 308 309 309 308 308 308 308 308 309 308 308 308 308 307 306 305 302 300 299 297 296 296 296 296 295 295 294 295 295 295 295 295 294
317 318 317 316 316 316 315 315 315 314 315 313 313 316 316 315 316 317 317 317 317 318 318 316 315 315 315 314 313 314 313 311 310 309 309 308 308 307 306 306 306 306 306 306 306 306 306 306 307 307 307 307 307 307 307 307 307 308 308 309 308 308 309 308 308 308 308 307 307 307 306 306 307 307 307 307 306 306 306 305 303 301 299 297 296 296 296 296 296 295 294 295 295 295 296 295 295
316 318 317 316 316 316 315 315 315 315 315 314 313 316 317 316 316 318 318 318 318 318 317 315 314 313 313 313 312 311 311 310 309 307 306 306 306 306 305 305 304 304 304 305 305 305 305 305 305 306 306 306 306 306 306 306 306 307 307 307 308 308 308 308 308 307 307 307 306 306 305 305 305 305 305 305 305 305 305 304 303 301 299 298 297 296 296 296 296 295 295 294 294 295 296 296 295
317 316 315 315 315 315 316 315 315 314 314 315 314 315 317 317 317 318 318 317 318 316 314 313 313 312 311 310 309 309 309 308 307 306 305 305 305 305 304 304 303 303 303 304 304 304 304 304 303 304 304 305 305 305 305 305 305 306 306 307 307 307 307 307 307 306 306 305 305 305 304 304 303 303 303 303 303 303 303 303 302 302 300 298 297 296 296 296 296 295 295 294 295 295 295 296 296
317 314 313 313 313 313 314 314 314 314 315 316 316 315 318 318 317 318 318 317 316 314 312 312 311 311 310 309 308 307 307 306 305 304 304 303 304 304 303 303 303 302 302 302 303 303 303 303 302 302 303 303 303 304 304 305 305 305 305 306 306 306 306 306 306 306 305 304 304 303 303 303 302 301 301 302 302 302 302 302 301 301 300 299 298 296 296 296 296 296 295 294 294 294 295 295 296
314 313 313 313 313 314 314 313 313 313 315 318 317 316 319 319 317 317 317 316 315 313 312 312 310 309 309 308 307 306 305 304 304 303 303 303 302 302 302 302 302 302 302 302 302 302 302 302 302 301 301 301 302 302 303 304 304 304 304 305 305 305 306 305 305 305 305 304 304 303 302 302 301 301 300 300 301 301 301 301 300 300 299 299 298 297 296 296 296 296 295 294 294 294 295 295 296
312 312 313 314 315 315 314 313 313 315 318 319 318 317 318 320 318 317 317 315 315 314 311 311 310 309 307 306 305 304 303 303 302 302 302 302 302 301 301 301 301 301 300 301 301 301 301 301 301 301 300 301 301 301 302 302 303 304 304 304 304 304 304 305 305 305 305 304 304 303 303 302 301 301 300 300 299 299 300 299 299 299 299 299 298 297 296 296 296 296 295 295 294 294 295 295 295
311 312 312 313 315 315 315 314 314 318 322 319 317 317 318 319 318 316 317 315 313 314 312 311 310 307 306 304 303 303 302 301 301 300 300 301 300 300 300 300 299 299 299 300 300 301 301 301 301 300 300 300 300 300 300 301 301 302 302 303 303 303 303 304 304 304 304 304 304 304 303 302 301 300 300 299 299 299 299 299 299 298 298 298 298 297 296 296 295 295 295 295 294 294 294 294 295
311 312 312 314 318 319 321 320 318 321 321 316 315 317 318 319 317 317 318 314 311 312 311 309 308 306 304 303 302 302 301 300 299 299 299 299 299 299 299 299 298 298 298 298 299 299 300 300 300 300 300 299 299 299 299 300 300 300 301 301 301 302 302 302 302 303 303 303 303 303 303 302 302 301 300 299 299 299 298 298 298 298 298 298 297 297 297 296 295 295 295 295 295 294 294 294 295
311 313 314 316 320 323 326 325 324 324 322 315 314 317 319 318 317 317 317 312 309 309 308 307 306 304 303 302 301 301 300 299 298 297 297 297 297 298 297 297 297 297 296 297 297 298 298 298 299 299 299 299 299 299 299 299 299 299 299 300 300 300 300 301 301 301 301 302 302 302 302 302 302 301 301 300 299 299 298 298 298 298 297 297 297 297 296 296 296 295 295 295 295 294 294 294 294
314 314 315 316 319 323 324 324 325 325 323 319 317 318 320 319 316 314 312 309 308 307 305 305 304 303 302 301 300 300 299 298 298 297 296 296 296 296 296 296 296 296 295 296 296 296 297 297 297 298 298 298 298 298 298 298 299 299 299 299 299 299 299 299 300 300 300 300 300 301 301 301 301 301 300 300 300 299 298 298 298 297 297 297 297 297 296 296 296 295 295 295 295 294 294 294 293
314 312 313 315 318 323 322 322 323 322 321 320 319 319 318 318 316 312 308 308 306 305 305 304 303 302 301 300 300 299 298 297 297 297 296 296 296 295 295 295 295 295 295 294 295 295 295 296 296 296 296 297 297 297 297 298 297 298 298 298 298 298 298 298 299 299 299 299 299 299 300 300 300 300 300 300 299 299 298 298 297 297 297 297 296 296 296 296 295 295 295 295 294 294 294 294 293
312 311 313 315 316 320 320 319 320 320 320 320 319 319 318 317 318 313 309 308 306 304 304 303 302 301 300 300 299 298 297 297 296 296 295 295 295 295 295 294 294 294 294 294 294 294 294 295 295 295 295 295 296 296 297 296 296 296 297 297 297 297 297 297 298 298 298 298 298 299 299 299 299 299 299 298 299 299 298 298 297 297 297 296 296 296 296 295 295 295 295 294 294 294 294 293 293
312 314 316 315 314 314 315 318 320 320 321 321 319 319 318 318 319 315 311 308 306 304 303 301 301 300 299 298 297 297 296 296 295 295 294 294 294 294 294 293 293 293 294 294 293 293 293 293 294 294 294 294 295 295 295 295 296 296 296 296 296 296 296 296 296 296 297 297 297 298 298 298 298 298 298 298 298 298 298 297 297 296 296 296 296 296 295 295 295 295 294 294 294 293 293 293 293
314 315 315 314 315 315 314 317 319 320 321 321 319 319 318 318 318 316 313 309 306 304 302 301 300 299 298 297 296 296 295 295 295 294 293 294 293 293 293 293 293 293 293 293 293 292 292 292 292 293 293 293 293 293 294 294 294 294 294 294 294 294 294 295 295 296 296 296 296 296 296 296 297 297 297 297 297 297 297 297 296 296 296 296 295 295 295 295 295 294 294 294 294 293 293 293 293
312 312 311 311 313 314 315 317 318 319 320 321 321 320 319 318 317 315 313 310 307 305 303 302 300 299 299 298 297 296 296 295 295 294 294 294 293 293 293 292 293 293 292 293 293 292 292 292 291 292 292 292 292 292 292 293 293 293 292 292 292 291 291 292 293 294 294 294 294 295 295 295 295 295 296 296 296 296 296 296 296 296 295 295 295 295 295 295 294 294 294 293 293 293 293 292 292
311 311 311 312 312 312 314 316 317 319 319 320 321 320 320 316 313 312 310 308 307 306 304 302 301 300 299 298 298 297 296 296 295 295 294 294 294 293 293 293 293 293 292 293 293 293 292 292 291 291 291 291 291 291 291 292 292 291 290 290 289 289 290 290 291 291 292 292 292 293 293 294 294 294 294 295 295 295 295 295 295 295 295 295 295 294 294 294 294 294 293 293 293 293 292 292 292
314 313 313 313 313 313 315 316 317 318 318 319 319 320 321 315 308 309 308 306 306 305 304 303 301 300 299 298 297 297 296 296 295 295 295 295 295 294 294 293 293 293 293 292 293 293 292 292 292 291 291 291 291 291 291 290 290 290 289 289 289 289 289 289 290 290 290 290 290 291 291 292 293 293 294 294 294 294 294 294 294 295 295 294 294 294 294 294 294 293 293 293 293 292 292 292 292
Wind_Speed
5 5 5 5 6 7 7 4 4 2 3 5 2 2 2 4 3 4 2 3 1 4 6 5 4 4 5 6 6 9 8 8 6 6 4 4 1 6 11 12 14 13 18 18 15 24 25 24 23 21 20 19 19 18 18 17 16 15 15 14 14 13 12 12 11 11 10 10 10 9 9 9 8 8 8 7 7 6 6 7 7 6 6 6 6 6 6 5 4 4 3 1 2 2 3 2 2
3 5 4 4 5 6 3 1 4 3 3 4 1 2 3 2 2 2 4 6 4 4 4 4 5 5 7 7 7 9 7 5 5 6 3 5 2 4 11 14 14 13 17 17 15 23 25 23 23 23 20 20 19 18 18 17 17 16 15 15 15 14 13 12 11 11 11 11 10 10 10 10 10 9 8 7 6 5 5 6 6 6 6 6 6 6 5 4 3 3 0 4 4 4 4 4 5
2 4 4 5 5 5 3 2 4 3 4 4 2 4 3 2 1 3 5 6 5 4 3 3 4 5 6 7 5 6 4 1 3 5 1 2 0 4 9 15 16 13 15 17 15 21 24 22 24 24 21 20 19 19 18 18 17 16 16 15 15 14 13 12 12 12 11 11 10 11 10 11 10 8 8 7 6 5 5 6 6 6 6 6 6 5 4 2 3 1 5 7 6 6 6 6 8
1 3 4 5 4 4 4 4 4 5 4 3 2 4 3 2 3 5 5 5 4 3 3 3 2 2 5 6 3 4 4 2 3 3 2 3 3 3 7 15 17 15 15 16 16 18 21 22 25 25 22 21 19 19 19 18 18 17 16 15 15 14 14 13 12 12 11 11 12 12 11 11 10 8 8 7 6 4 5 6 6 6 5 5 4 3 3 2 2 2 8 9 8 8 8 9 9
1 3 4 5 3 2 3 3 3 4 4 3 3 2 4 3 4 6 6 6 3 3 3 3 2 2 4 5 3 3 3 3 3 1 2 3 2 3 6 14 17 15 14 16 16 17 19 21 24 26 23 21 20 19 19 19 18 17 16 15 15 15 15 14 13 13 12 12 12 12 12 11 10 8 7 7 7 5 5 5 6 6 5 5 5 4 3 3 2 3 8 10 9 10 9 10 10
3 3 3 4 3 2 3 4 3 4 2 3 4 4 5 5 5 6 7 7 1 1 3 4 4 2 4 4 5 4 4 3 1 0 1 0 2 4 6 12 16 14 15 17 17 16 18 20 22 26 25 22 21 20 20 20 19 18 17 17 16 15 16 15 14 14 13 13 13 13 12 11 10 8 7 7 8 6 6 6 6 7 7 6 5 4 3 4 3 3 7 10 9 10 9 9 9
4 3 3 4 2 1 5 5 4 4 2 3 5 6 7 7 7 6 7 5 1 2 4 4 2 5 5 2 4 4 2 2 1 2 4 2 2 4 7 11 14 13 15 18 17 16 18 21 22 25 26 23 22 22 21 21 20 18 17 18 16 15 16 16 15 15 15 14 14 13 12 11 10 9 8 9 8 6 7 8 8 8 8 6 5 4 5 5 4 4 6 10 9 9 8 8 8
5 3 1 3 3 3 5 5 4 4 1 2 5 6 7 8 7 6 7 5 2 1 4 4 3 5 1 2 3 3 5 4 5 6 6 6 4 5 8 11 13 13 15 18 17 16 18 20 22 26 27 25 23 23 22 22 20 19 18 17 17 16 16 16 15 16 16 15 15 13 12 12 11 10 10 10 7 7 9 9 9 10 8 7 6 5 6 6 5 6 8 9 9 8 7 6 4
4 3 1 3 4 3 4 5 4 3 3 3 5 6 6 6 6 5 7 5 4 3 3 2 3 5 1 1 5 5 7 4 5 7 8 9 6 6 8 11 12 13 16 17 16 16 17 19 21 27 28 25 25 24 23 23 21 20 19 18 17 16 16 17 16 16 16 15 14 12 12 12 12 12 12 11 10 12 11 8 9 9 8 9 8 7 6 6 6 8 9 9 8 6 4 3 1
4 2 2 3 4 4 5 4 2 1 2 3 5 6 5 4 4 4 6 5 3 3 0 2 4 8 6 6 6 3 6 4 3 4 7 8 7 7 8 12 12 13 17 16 16 16 16 19 21 27 29 26 26 25 24 24 22 21 20 19 18 18 17 18 17 17 16 14 13 12 13 13 13 12 11 11 13 14 13 9 8 8 8 9 8 7 7 7 7 9 9 7 5 3 2 0 0
3 2 2 3 4 5 4 4 3 3 3 4 5 3 2 2 3 3 4 5 2 4 1 3 4 7 8 8 5 3 5 3 2 2 5 7 7 7 7 11 11 13 16 16 17 16 15 18 22 27 29 27 26 25 24 24 23 23 22 21 20 19 19 18 17 16 15 14 14 14 14 14 13 12 12 14 15 12 11 10 9 9 9 9 9 8 8 8 8 9 8 5 3 2 1 1 1
3 2 2 4 4 4 4 5 5 6 7 6 3 3 2 1 2 3 3 5 4 6 4 6 1 3 6 7 2 5 7 4 5 4 5 5 6 8 8 10 11 13 14 16 17 17 15 16 22 29 29 27 27 26 25 24 24 24 23 22 22 21 20 19 19 18 17 17 16 16 16 15 15 16 17 18 17 13 11 11 10 10 10 10 9 9 9 9 9 9 7 4 3 2 2 1 1
4 2 3 5 4 5 5 6 6 7 6 3 2 6 2 2 3 4 5 7 7 8 3 4 1 4 7 7 4 4 7 7 6 6 5 4 5 8 9 8 11 13 13 17 18 17 16 15 21 27 29 28 27 26 25 25 25 24 23 23 23 23 22 22 21 20 20 19 18 17 16 16 17 18 19 19 18 16 14 13 12 11 11 11 10 10 10 10 10 8 6 4 3 3 2 2 2
3 2 4 5 3 5 6 6 5 5 5 2 4 5 3 3 3 4 6 9 9 5 3 1 2 4 7 7 5 2 5 6 6 6 6 7 7 8 10 9 11 14 13 16 18 18 17 17 19 23 27 28 27 27 27 26 25 25 25 24 25 24 24 23 23 22 21 20 19 18 17 16 17 18 18 19 18 17 15 14 13 13 12 11 11 10 10 11 10 8 6 5 4 3 2 2 2
3 2 3 5 4 6 4 4 5 5 5 2 3 4 3 4 3 4 6 8 8 3 2 2 3 3 5 6 4 4 6 5 5 5 7 9 8 8 11 10 11 15 15 15 18 18 19 19 20 22 24 25 25 25 26 27 27 26 25 26 26 26 25 24 24 23 22 22 21 20 19 18 17 18 18 18 18 17 16 15 14 13 12 12 11 11 11 11 10 8 7 5 4 3 1 1 2
3 3 3 5 5 5 2 3 4 4 5 2 4 4 4 4 4 5 3 3 9 6 4 5 6 7 8 10 6 6 7 5 3 4 6 7 8 7 10 11 10 13 16 16 18 19 21 21 21 23 24 24 24 23 22 24 28 28 27 27 27 26 25 25 24 24 23 23 22 22 22 21 19 18 19 18 17 17 16 16 15 13 13 13 12 12 12 12 10 8 7 6 4 2 0 1 2
2 3 5 5 5 6 3 3 4 4 6 4 4 4 5 5 3 4 1 3 11 12 11 8 8 10 13 14 5 5 5 4 3 4 6 7 7 7 8 10 10 12 16 18 19 20 22 23 23 23 24 25 25 25 22 23 26 29 29 28 28 27 26 26 25 25 24 23 24 23 23 22 20 19 19 18 17 17 16 16 15 14 14 13 13 13 13 12 10 9 8 6 4 2 1 1 2
3 4 5 5 6 6 3 4 6 6 8 7 4 2 6 9 4 2 1 7 11 13 15 12 12 14 17 17 8 6 8 6 6 6 7 8 8 9 9 11 13 14 15 17 20 21 22 23 25 24 24 26 27 27 26 24 25 27 29 28 27 28 27 26 25 25 25 24 25 25 23 21 18 16 17 16 15 16 17 16 16 15 14 14 14 14 14 13 11 10 9 7 5 3 2 1 1
5 5 6 6 7 8 4 7 9 9 10 11 11 8 7 9 7 3 6 11 10 13 15 13 13 15 17 18 16 13 10 8 9 10 11 11 11 11 11 12 14 15 16 18 20 23 23 23 25 26 25 25 26 28 27 25 24 24 27 26 26 28 28 27 27 26 25 24 24 25 23 18 16 14 15 16 16 15 16 17 17 17 16 15 16 15 14 14 13 12 10 8 6 5 3 3 2
6 5 6 7 8 10 7 8 10 11 11 12 13 11 10 10 8 6 9 13 11 13 15 13 14 13 12 12 14 13 12 12 12 12 14 15 15 14 14 14 15 17 18 18 19 22 24 24 25 27 27 25 26 28 28 26 25 23 24 25 26 25 26 28 27 25 23 22 22 22 20 17 17 15 15 18 17 15 15 17 18 18 18 17 17 16 15 15 14 13 11 9 7 6 4 4 4
4 6 8 9 9 10 9 10 11 10 9 11 13 12 13 10 7 7 10 11 10 12 14 14 15 13 12 10 10 8 11 12 13 14 15 16 17 16 16 16 15 15 16 16 17 20 26 27 25 26 27 26 26 27 28 27 26 24 23 24 25 24 23 24 25 23 22 22 20 19 20 19 18 15 15 19 18 15 14 17 19 19 19 18 18 16 16 17 15 14 12 10 8 7 6 6 5
5 8 11 13 12 12 11 11 8 5 7 10 13 13 12 8 5 9 12 12 10 12 14 16 17 15 15 14 13 9 10 12 13 14 15 16 18 18 17 16 15 13 14 16 17 19 24 27 26 25 26 27 27 26 27 27 26 25 24 23 24 25 23 22 23 24 22 22 22 21 20 19 19 16 15 19 19 15 14 17 18 18 17 18 19 16 15 17 16 15 13 11 10 9 9 8 7
6 10 12 13 13 13 12 11 3 1 9 12 13 12 12 11 11 12 14 15 16 16 17 19 20 19 18 16 14 12 12 14 15 15 16 17 17 18 18 16 15 13 13 15 17 17 20 25 27 26 25 27 27 26 25 25 26 26 25 24 25 24 23 22 23 24 22 22 23 23 21 20 21 18 16 18 19 17 15 16 18 18 16 17 19 15 16 19 17 16 14 12 12 11 11 10 9
8 11 12 13 13 13 13 12 5 5 11 14 13 13 15 16 14 13 15 16 18 20 19 20 20 20 19 16 14 14 15 15 16 18 18 17 17 18 17 16 15 14 14 14 16 17 18 23 26 26 26 27 28 27 25 25 25 25 25 25 26 25 24 24 24 23 22 21 23 25 23 21 22 19 17 18 19 17 16 17 17 17 16 17 19 17 19 21 18 17 16 14 14 12 12 11 10
11 13 13 12 12 12 12 12 10 10 11 11 12 15 18 18 14 17 21 19 19 20 20 20 19 18 17 16 15 14 15 15 15 18 18 17 17 16 15 15 15 15 16 16 16 18 19 22 26 28 28 28 28 28 27 25 24 24 25 25 26 27 25 24 25 23 21 21 23 27 26 23 22 20 19 18 19 18 17 17 17 17 17 18 21 21 22 22 19 18 17 15 14 13 12 11 11
7 9 11 11 11 13 13 14 14 11 9 9 12 17 19 17 14 17 20 18 17 18 19 18 16 16 15 14 15 14 14 15 15 16 16 15 14 14 14 14 14 17 19 19 18 19 21 22 26 29 29 29 29 29 28 27 25 24 25 26 26 27 27 26 25 23 22 23 24 28 30 27 23 21 20 19 20 20 18 18 18 18 18 20 23 24 24 22 20 20 18 17 16 14 13 12 11
5 8 10 13 15 15 15 17 16 13 12 12 14 17 18 14 11 13 14 11 9 11 14 15 13 14 14 13 13 13 14 15 15 16 14 12 11 12 14 14 16 19 19 20 20 21 22 23 26 28 30 30 29 30 31 29 27 25 25 25 26 26 27 27 25 23 23 24 25 29 32 32 28 22 21 21 20 21 20 20 21 21 22 24 25 26 25 23 22 21 19 18 17 15 14 14 12
8 9 11 15 18 17 17 19 17 13 11 11 13 16 17 13 11 15 17 14 11 10 12 13 13 14 14 15 14 12 12 14 16 15 12 11 11 12 14 15 18 20 21 23 23 21 21 23 25 28 29 30 31 31 33 32 27 26 25 25 26 25 25 26 25 24 24 24 26 31 35 36 33 25 23 23 23 22 22 24 26 25 26 27 27 26 25 24 22 21 21 20 18 17 16 15 13
7 8 11 16 16 16 18 18 16 14 7 4 6 10 13 12 13 18 19 16 12 11 12 12 13 14 13 14 13 12 12 14 14 13 12 13 13 14 15 16 18 19 21 23 22 21 21 23 24 26 27 30 33 32 31 31 27 25 25 24 24 24 24 26 25 24 24 24 25 33 36 37 37 31 27 27 26 25 26 28 29 29 28 28 28 27 26 25 24 23 23 21 19 18 17 16 14
7 9 8 11 12 13 15 12 8 9 5 8 5 7 9 11 13 16 12 8 7 8 11 13 13 13 13 13 13 13 15 14 14 13 14 13 13 14 17 19 18 17 17 16 18 21 22 23 24 25 26 29 31 31 28 27 27 25 24 24 23 24 25 26 24 22 24 23 24 32 37 37 38 35 30 30 30 29 28 30 30 30 30 29 29 29 28 27 26 25 24 22 20 19 17 16 15
8 9 6 7 8 8 11 6 5 4 4 9 7 7 8 12 14 12 6 1 5 9 14 16 15 13 12 13 14 15 16 15 15 16 16 14 12 14 17 18 17 17 16 14 16 20 19 21 23 23 25 27 28 29 27 24 25 24 23 22 23 23 24 24 23 22 23 23 23 30 38 38 39 38 33 32 33 32 30 30 31 32 31 31 31 30 30 29 27 26 24 23 21 19 17 16 15
8 8 7 7 7 8 10 6 8 6 3 9 10 6 8 11 11 10 6 4 8 12 16 18 17 16 15 15 14 15 15 15 15 16 16 14 13 14 15 15 15 15 16 14 14 15 15 17 20 21 22 23 23 25 25 22 21 21 21 21 21 22 22 22 22 21 21 22 22 26 36 39 39 39 36 34 34 33 31 31 32 33 33 33 32 32 31 29 28 27 25 24 23 20 17 17 15
7 8 9 8 9 10 8 5 6 5 2 9 12 8 9 9 11 13 14 15 16 16 18 20 20 18 16 14 13 13 13 13 12 12 12 12 12 12 12 12 12 12 12 13 12 11 12 14 17 19 19 19 20 20 22 20 17 17 18 18 19 19 20 20 20 20 20 21 21 24 33 38 40 40 38 36 35 34 32 32 32 33 34 34 33 32 32 30 29 28 26 25 24 21 18 17 15
6 8 9 10 11 10 8 7 4 2 4 9 12 11 13 13 14 16 17 17 17 18 20 20 19 16 14 14 14 12 12 11 9 7 9 11 10 11 11 10 9 8 8 9 9 9 9 10 12 15 15 15 17 17 19 19 17 16 16 16 17 18 18 19 19 18 19 20 20 25 31 36 38 40 39 38 36 34 33 32 32 33 34 34 33 33 32 29 29 29 28 27 24 21 19 19 16
10 10 9 10 11 11 12 11 7 6 11 13 13 14 16 16 15 15 16 16 15 18 21 18 16 17 16 14 13 12 10 8 5 6 10 11 11 11 11 9 8 6 5 4 5 6 6 6 7 10 12 12 14 15 15 16 16 16 15 14 15 17 17 18 19 18 19 20 22 26 31 34 36 39 39 39 38 36 34 33 32 33 35 34 32 32 31 29 29 29 29 28 24 21 19 19 17
17 14 11 12 13 13 15 15 13 14 16 14 15 16 16 16 16 15 16 16 17 19 20 17 15 16 16 14 11 8 5 2 3 6 9 10 12 12 11 10 8 6 5 4 2 2 3 4 5 6 9 10 11 12 12 13 14 14 14 14 14 16 16 16 18 19 20 21 22 25 30 32 34 37 39 40 39 37 35 34 33 33 34 34 33 33 33 32 32 31 29 29 27 22 18 17 18
18 15 12 14 15 13 14 15 14 13 13 11 13 16 16 16 16 17 17 17 17 19 18 17 16 15 14 11 6 3 3 2 4 4 7 12 14 13 11 12 13 12 11 10 7 4 2 1 3 3 5 8 9 10 11 12 12 12 13 14 14 14 13 14 15 18 21 20 17 21 26 29 31 34 37 39 39 37 35 33 33 33 34 34 35 35 34 34 34 33 31 30 29 27 22 19 20
15 13 12 14 13 13 15 16 15 11 9 9 12 15 17 17 18 20 18 16 16 16 16 17 18 15 8 3 4 4 2 1 2 5 12 16 17 16 15 17 19 19 17 16 13 9 6 3 1 1 2 5 7 8 9 9 11 11 11 12 12 12 12 13 13 15 17 16 14 17 21 24 27 30 33 36 37 37 35 32 32 33 36 35 35 35 34 34 35 34 32 31 30 30 26 23 23
13 11 11 11 9 12 14 12 8 3 3 8 13 15 14 17 21 20 16 12 12 13 16 18 15 9 5 5 5 5 3 5 8 10 13 17 19 19 19 20 20 20 20 19 17 13 10 8 5 3 1 1 3 5 6 6 7 8 8 8 8 8 9 10 11 11 12 13 14 18 21 22 25 27 30 32 34 35 35 34 31 33 36 36 35 35 34 35 36 35 35 33 30 27 23 24 28
10 9 10 10 9 12 10 7 5 3 7 11 14 13 12 15 15 10 7 8 8 12 17 14 5 4 3 4 5 5 8 10 12 13 13 16 19 20 21 21 21 21 21 21 20 16 14 12 9 6 4 2 1 2 4 4 4 5 5 5 5 6 6 6 8 9 11 14 16 20 25 26 27 28 30 32 33 35 36 36 33 32 35 36 37 37 36 37 38 37 36 33 30 27 21 22 29
11 11 10 11 13 14 13 11 11 11 11 9 10 10 7 4 3 3 3 5 7 13 12 2 6 6 4 5 8 10 11 13 14 15 14 15 17 20 22 23 23 23 22 22 20 18 16 14 13 10 8 6 5 2 2 3 2 2 3 5 6 6 7 6 7 8 10 14 17 19 23 25 27 28 29 31 34 36 37 37 35 33 34 36 37 38 37 37 39 39 38 34 33 33 26 23 27
10 10 10 13 14 15 15 14 12 9 6 1 5 8 3 2 1 4 4 6 13 15 4 7 9 7 8 9 11 12 13 14 15 15 15 15 17 20 23 25 25 24 23 22 20 20 19 17 15 13 11 10 9 6 3 2 2 3 3 5 6 6 7 8 8 9 10 11 14 15 18 21 24 26 28 29 31 34 37 36 35 35 36 36 37 38 36 34 37 38 38 37 36 36 30 25 27
8 5 5 9 11 12 12 12 8 6 5 2 3 5 6 4 8 9 6 10 15 7 9 12 10 11 11 11 12 13 13 13 14 15 15 16 18 20 22 25 24 23 23 22 21 21 21 20 18 16 14 13 12 9 5 3 3 3 4 5 6 7 8 8 8 8 9 9 9 10 13 16 20 23 24 27 29 31 35 36 36 36 37 37 37 39 36 33 37 40 40 40 39 37 32 26 27
6 3 5 6 8 10 9 7 6 6 8 8 5 7 8 7 6 5 7 12 8 8 15 13 12 13 13 14 15 14 14 13 13 14 15 16 18 19 20 22 22 22 22 22 21 20 20 21 20 18 17 16 15 12 8 6 5 4 4 5 7 8 9 10 9 8 7 8 8 8 10 12 16 20 21 22 25 28 31 34 36 36 38 37 36 38 38 35 36 39 40 40 38 37 35 31 29
2 5 4 4 4 6 6 5 7 7 8 8 5 7 7 7 3 3 6 7 3 12 13 13 14 13 13 14 15 14 14 14 13 14 15 15 18 20 20 21 22 22 23 21 20 19 20 21 21 21 20 20 19 16 12 9 6 5 5 5 6 8 9 10 10 9 8 7 8 9 10 10 13 17 19 20 21 24 28 31 32 34 36 37 35 37 39 36 35 37 39 41 39 38 38 36 31
2 3 3 3 3 5 5 6 6 6 8 9 6 9 6 7 4 2 3 2 5 10 10 12 13 12 12 12 13 14 12 12 13 13 14 16 18 20 20 21 22 22 21 20 19 20 22 23 22 23 23 23 22 19 16 12 9 7 6 6 7 8 9 10 10 10 10 9 9 9 9 10 11 13 17 19 20 22 26 28 30 33 35 35 34 35 37 36 35 35 38 42 43 40 38 38 35
2 3 5 5 7 6 5 5 4 5 8 8 7 13 8 6 3 0 2 3 4 7 10 10 12 12 12 11 12 12 10 10 11 12 14 17 19 20 20 21 22 22 22 21 21 21 22 23 22 24 26 25 24 21 19 16 13 10 9 8 8 8 9 10 10 11 11 11 12 10 9 10 10 11 13 16 19 22 24 25 28 31 33 33 34 35 37 37 36 36 37 40 42 42 38 38 38
1 3 4 6 6 4 5 4 3 5 6 3 1 7 9 7 1 1 2 8 8 7 10 11 11 12 11 11 10 10 10 10 11 11 12 14 16 19 21 21 22 22 22 22 21 20 21 22 22 25 29 29 26 22 20 17 15 13 12 10 10 9 9 9 10 11 11 12 13 12 11 11 10 11 12 14 18 21 22 24 26 27 29 32 34 35 37 37 36 36 36 38 41 43 42 40 39
3 3 4 5 5 4 5 4 4 6 4 3 4 1 6 8 5 8 5 8 12 9 11 12 12 12 11 10 9 8 9 10 10 10 9 10 11 14 18 18 18 19 20 20 20 20 19 20 22 26 27 27 25 24 22 19 17 15 14 12 11 10 10 9 10 10 11 12 12 12 12 12 11 11 11 14 18 20 21 23 24 26 28 30 31 33 34 35 35 35 35 38 40 42 44 43 41
5 4 4 4 5 6 7 6 6 7 2 3 2 0 4 7 6 9 5 10 14 12 13 13 12 12 10 9 8 8 9 10 9 8 8 8 9 12 14 14 15 17 19 20 20 20 19 20 24 27 26 26 26 26 24 21 19 17 15 14 12 11 11 10 10 10 11 11 12 12 13 13 13 14 13 14 16 19 21 22 24 26 28 28 29 30 32 33 33 34 35 36 38 40 42 44 43
4 1 1 3 4 5 6 5 6 7 7 5 2 2 4 4 3 6 9 13 14 12 13 12 11 11 9 9 9 9 9 9 8 8 8 8 10 12 12 12 13 15 17 18 18 19 19 21 24 26 26 27 28 27 26 24 20 18 17 15 14 12 11 11 10 10 11 12 12 12 13 13 14 15 15 15 14 16 20 22 23 25 26 27 27 29 30 31 32 33 35 35 36 38 39 42 44
1 1 1 2 2 2 3 5 6 7 9 9 5 4 5 6 1 11 14 14 13 12 12 12 11 10 9 8 8 8 8 7 7 7 7 8 10 10 10 10 11 12 14 14 14 15 16 18 20 21 21 21 22 23 23 23 23 22 21 19 17 14 12 11 10 10 12 12 13 13 13 13 14 15 16 17 16 15 18 21 23 25 26 27 27 27 28 30 31 33 34 35 35 36 38 40 41
2 2 3 1 1 2 2 5 4 4 8 8 6 7 8 8 6 8 15 14 12 11 10 11 10 10 9 8 7 7 6 6 6 6 6 7 8 8 8 9 10 11 11 11 11 13 14 16 18 18 18 17 17 17 16 18 20 20 20 20 21 21 19 17 15 14 14 13 13 13 14 14 15 15 16 17 17 16 17 21 22 23 25 26 26 27 28 29 30 32 34 35 35 35 37 40 40
3 3 2 1 1 1 2 4 3 4 8 6 7 11 10 7 6 6 14 13 10 9 10 9 8 8 9 7 6 6 5 5 5 5 5 5 6 7 7 8 9 9 9 9 12 13 14 15 15 15 15 14 14 12 11 12 13 14 14 15 18 20 22 22 22 22 19 16 15 14 14 15 15 16 16 17 17 17 18 20 21 22 24 25 26 27 28 29 29 31 33 34 35 34 35 38 40
1 1 0 1 2 3 4 4 4 6 9 6 7 12 10 8 7 3 9 11 11 9 8 7 7 7 6 5 5 4 4 3 3 3 2 2 3 5 6 7 7 7 8 9 10 12 12 13 12 11 11 12 12 13 12 11 11 11 12 13 16 19 21 22 23 23 22 20 19 17 16 16 16 16 16 17 18 19 20 21 21 22 23 24 26 27 28 28 29 31 32 32 33 33 34 36 37
2 1 1 1 2 4 4 3 2 6 9 8 7 9 8 6 3 1 7 11 10 9 8 7 6 6 5 5 4 3 2 2 1 1 0 0 1 3 4 5 6 6 8 8 8 9 9 9 9 8 8 9 11 12 12 11 10 12 15 19 22 25 26 26 24 23 22 21 21 20 19 19 18 17 17 17 18 19 20 21 21 22 22 23 25 26 27 28 29 30 31 31 32 32 34 36 36
3 4 5 4 4 2 3 3 3 5 9 9 9 9 7 2 3 4 8 9 9 9 8 6 6 6 5 4 3 2 2 1 1 1 0 1 1 2 3 3 4 5 6 7 7 7 7 7 7 7 8 9 9 10 11 12 13 17 21 25 27 27 26 25 24 23 23 23 23 22 22 21 20 19 19 18 19 19 20 21 21 22 22 23 24 25 26 27 28 29 29 30 30 30 32 35 35
1 3 5 6 5 3 4 7 6 5 7 7 9 10 4 1 4 4 7 7 7 8 7 6 6 5 5 4 3 2 2 1 1 1 1 1 2 2 3 3 3 4 5 6 6 7 7 8 8 8 9 11 12 12 14 17 19 20 22 23 23 24 23 23 22 20 21 23 23 23 24 24 23 22 21 20 20 20 20 20 21 22 23 23 24 25 26 26 27 28 29 29 29 29 31 32 33
Wind_Direction
331 319 315 309 292 288 276 278 285 222 245 270 276 324 73 56 351 294 338 41 35 59 23 332 308 285 278 309 327 324 301 284 312 322 353 103 127 159 176 191 166 157 171 164 170 186 186 183 176 178 183 183 182 183 185 185 185 186 185 184 183 183 183 183 185 183 178 180 180 181 178 172 169 159 154 151 155 153 152 152 143 145 143 139 134 129 127 125 133 124 113 258 264 276 291 276 247
327 307 293 283 273 276 292 316 290 259 255 274 125 42 33 63 258 280 15 13 8 26 355 315 298 271 268 291 292 291 286 262 290 318 21 131 147 152 186 188 166 159 169 165 169 185 185 186 181 178 185 185 184 185 186 186 187 189 190 190 187 186 187 188 190 186 185 187 185 186 182 175 169 158 153 143 146 148 150 151 141 143 141 138 133 129 125 126 123 116 142 282 280 285 280 274 285
313 299 277 267 253 252 285 246 269 301 288 296 76 75 22 302 324 10 10 0 2 5 322 298 279 264 255 251 263 283 297 290 303 309 358 132 177 144 189 188 169 159 168 169 168 181 182 187 186 180 184 187 188 189 189 188 189 191 193 194 190 189 191 191 192 190 191 193 191 189 182 176 168 157 152 141 141 145 147 145 143 147 147 144 135 126 122 144 132 134 268 275 276 283 286 288 298
321 295 272 270 250 235 264 251 271 303 291 311 31 80 49 316 347 348 350 350 347 331 295 291 259 183 245 262 307 289 280 324 34 332 320 63 53 126 186 191 174 159 169 172 169 178 181 189 190 183 183 189 191 191 192 191 191 193 196 198 194 192 192 192 193 193 195 196 197 191 182 177 168 158 160 161 160 166 164 154 156 157 157 158 147 139 145 179 153 229 259 264 271 278 289 295 301
310 280 265 268 269 276 282 278 275 270 287 335 323 26 35 350 332 329 332 327 322 302 279 265 265 144 239 277 302 283 330 355 87 356 322 70 90 160 189 193 176 165 171 173 173 176 182 193 194 187 183 189 193 193 196 194 195 196 198 199 197 196 192 192 195 196 196 199 198 190 184 178 168 163 171 176 175 186 190 180 186 179 171 180 175 169 175 196 202 228 249 259 270 278 288 294 300
266 248 233 251 274 337 277 266 263 257 300 353 301 322 351 347 343 331 318 314 322 271 250 234 272 275 260 244 222 257 346 347 100 236 224 108 225 189 197 192 174 171 174 173 175 175 187 198 198 192 184 189 195 195 198 198 199 199 202 200 199 199 193 195 197 197 196 198 195 187 184 178 170 171 180 187 185 192 200 199 213 208 191 195 190 183 195 208 216 213 249 262 272 279 284 290 294
265 243 200 229 225 232 258 264 280 283 22 31 305 315 322 328 339 324 310 313 119 171 210 222 275 284 275 206 219 234 255 257 247 226 192 228 245 191 200 186 174 178 176 174 176 176 191 198 199 197 187 188 194 197 200 200 201 201 204 203 201 200 197 197 197 199 197 196 192 186 183 179 179 181 195 208 210 220 230 217 216 223 207 208 218 201 209 212 199 196 249 264 271 276 279 285 289
261 265 203 252 234 203 259 273 279 287 16 9 300 300 304 318 327 313 308 306 290 221 205 214 226 265 254 138 254 161 170 219 219 229 220 237 241 211 200 179 177 180 176 176 176 179 197 200 199 200 191 190 193 197 201 201 203 202 205 204 203 203 200 197 198 199 196 194 191 186 184 187 193 196 208 221 227 229 241 234 224 231 216 217 227 205 205 203 192 217 255 266 271 274 276 281 290
236 252 221 267 259 235 262 269 268 279 287 300 291 287 291 302 309 304 301 290 288 293 237 215 202 252 316 232 269 138 149 199 217 239 241 241 237 227 203 179 182 180 177 178 178 182 198 203 202 200 194 193 195 198 201 202 203 203 206 204 204 205 202 200 200 199 195 193 189 187 192 201 204 209 223 234 236 222 220 228 231 235 217 211 211 200 202 196 207 243 262 267 270 271 274 281 298
219 240 261 268 269 265 260 262 277 289 290 301 288 291 298 299 305 296 293 299 311 300 329 76 218 243 286 296 283 139 138 164 207 247 241 241 228 222 203 183 184 179 179 179 180 182 194 206 206 201 195 194 197 200 202 203 203 204 206 204 203 205 204 203 203 200 194 190 191 195 203 215 216 221 234 232 235 227 213 212 219 214 202 202 196 196 199 195 220 251 262 265 264 256 249 252 24
226 201 272 274 259 269 285 309 319 318 321 302 281 287 324 350 313 279 271 288 293 288 207 142 231 246 265 279 278 130 130 168 156 172 220 235 218 208 194 186 185 181 183 181 182 183 190 206 206 199 196 196 199 201 203 204 204 205 206 204 202 204 203 202 203 199 194 193 199 206 212 220 219 221 225 221 232 232 213 206 208 203 197 196 191 194 195 201 231 251 255 253 240 212 201 156 89
254 193 229 266 276 291 319 320 314 314 308 285 266 110 86 93 270 279 288 295 296 292 247 179 235 319 268 272 286 134 144 158 136 158 210 223 208 196 185 187 189 184 188 186 185 187 187 200 201 197 196 199 201 202 204 205 205 205 206 205 202 203 202 200 201 199 199 201 206 213 219 221 220 221 223 227 235 236 221 206 205 206 200 197 194 194 197 214 235 241 241 230 212 190 181 155 110
263 277 256 269 296 300 308 305 301 306 299 288 101 108 115 210 248 295 313 303 291 290 275 169 271 319 277 285 296 181 149 134 152 197 208 183 180 189 185 189 196 188 190 193 192 191 187 194 196 196 198 200 202 204 206 205 205 205 205 205 203 202 202 203 204 204 206 209 211 219 226 225 224 226 227 231 234 238 230 208 204 206 201 201 196 194 202 220 229 230 230 215 201 186 177 161 126
277 294 280 280 292 283 284 285 293 300 301 49 91 124 164 237 268 307 301 294 293 307 18 78 281 291 277 276 273 217 123 125 175 207 193 180 176 184 187 187 199 194 194 198 198 196 191 194 194 197 200 200 202 205 206 206 205 206 206 206 205 204 204 207 210 210 213 215 217 222 229 229 229 229 228 231 233 236 227 206 204 205 200 200 196 198 208 219 223 225 224 211 203 193 184 164 119
288 290 273 274 278 274 253 261 296 297 293 3 104 127 198 243 234 266 280 288 305 8 31 267 212 248 285 280 294 74 114 144 173 191 186 191 188 188 192 195 204 200 199 199 199 199 195 196 196 199 202 201 202 203 205 206 206 207 209 210 210 210 210 212 214 216 218 220 220 222 227 228 229 230 229 231 231 230 220 205 203 202 199 198 198 205 214 221 224 222 217 212 211 208 201 112 60
273 281 256 263 273 275 227 242 286 274 300 14 120 134 264 257 198 248 304 300 299 305 261 239 197 233 276 283 304 89 134 161 155 176 174 187 191 193 200 204 208 206 207 203 202 201 198 198 198 201 204 204 203 204 206 208 210 210 211 215 215 216 217 217 219 220 220 222 223 222 223 225 227 228 230 231 228 226 216 207 205 199 196 197 200 207 216 222 223 220 217 218 219 218 247 21 19
254 259 249 259 263 270 249 246 284 293 321 349 149 166 276 292 181 210 7 262 275 281 267 253 225 235 254 264 269 132 185 202 174 176 163 178 188 193 202 205 206 207 210 208 206 204 201 201 199 201 204 206 206 206 208 209 215 215 214 217 219 220 221 221 221 220 220 222 223 222 220 221 223 226 230 230 225 225 217 208 206 199 194 197 200 208 217 221 220 219 219 221 218 211 220 329 345
224 233 248 257 262 280 293 280 299 304 299 304 283 227 275 292 269 190 271 252 256 269 270 263 247 240 245 254 248 211 231 222 194 197 191 193 194 200 202 201 205 206 207 208 209 205 203 204 202 202 204 206 207 209 210 211 217 221 219 217 219 221 221 220 219 219 220 221 223 223 220 217 217 220 223 219 213 219 217 210 207 201 195 197 205 213 219 220 218 218 219 217 210 204 211 245 276
225 249 261 257 265 287 304 290 299 299 292 298 299 292 279 284 291 290 274 273 273 274 272 268 258 249 247 248 239 224 221 213 202 211 220 215 213 217 212 203 204 207 205 204 208 206 204 204 204 205 206 205 207 210 212 213 216 220 220 217 219 220 219 220 219 219 220 219 223 223 218 213 211 210 211 209 206 211 214 212 209 205 199 202 210 215 219 219 217 217 217 212 206 205 211 232 251
233 242 258 260 268 281 280 285 292 290 294 294 294 298 288 279 281 269 265 277 278 271 272 272 269 266 264 255 247 230 214 221 217 218 230 230 229 229 227 217 207 208 207 205 207 206 204 205 204 206 207 205 206 209 212 214 215 217 219 218 219 219 219 222 219 216 215 213 216 218 212 209 208 206 209 210 207 203 208 212 208 206 206 209 213 213 217 217 216 217 212 208 206 208 211 228 245
237 223 250 269 282 286 277 287 292 287 297 293 292 295 286 284 279 253 258 274 269 262 266 271 275 284 291 296 297 262 219 228 227 223 229 233 235 234 236 234 224 217 209 205 204 205 207 207 205 205 206 205 205 207 210 214 214 215 217 215 215 217 217 219 217 211 209 206 207 211 208 208 206 201 206 207 203 194 198 207 204 203 207 212 214 211 216 216 216 216 209 205 207 210 216 223 232
254 236 250 268 277 280 279 291 297 293 298 288 285 284 285 292 272 250 254 260 259 264 276 283 287 294 299 299 304 283 232 241 244 237 235 234 236 236 240 240 237 229 210 205 206 207 209 209 207 205 204 204 205 205 208 212 213 215 216 213 213 216 214 213 214 209 205 204 205 209 206 205 204 197 199 201 198 191 192 198 196 197 199 209 213 205 212 217 215 214 208 206 208 215 220 223 228
253 257 255 265 270 274 282 293 299 273 281 277 279 286 290 282 269 264 257 252 255 264 274 283 287 290 294 292 288 271 247 252 256 253 247 242 240 237 238 239 238 230 214 210 211 209 207 209 208 206 204 204 204 205 207 210 213 215 215 213 213 215 213 211 212 209 204 201 204 207 203 202 202 196 195 197 196 193 193 192 190 193 191 204 210 198 207 217 214 212 208 208 212 218 222 225 229
244 268 269 272 276 276 282 287 272 252 266 270 280 287 282 272 275 279 268 260 262 266 269 273 280 284 287 285 276 266 258 258 257 257 255 250 247 243 239 238 239 232 225 219 215 213 208 210 210 207 207 206 205 205 206 209 211 212 213 212 213 213 211 209 210 207 202 200 204 206 202 201 199 195 195 196 195 194 196 192 189 193 189 200 207 200 209 216 212 211 210 212 216 220 224 226 229
243 258 270 276 277 275 279 282 269 258 260 267 275 273 269 269 280 281 274 270 266 266 270 271 275 279 280 278 272 266 263 262 258 257 255 249 248 249 244 238 236 231 229 225 217 214 211 213 214 209 208 207 205 205 205 208 209 210 211 211 211 212 209 208 209 204 198 199 205 207 204 201 197 196 197 195 195 194 194 192 189 192 190 199 207 205 213 216 210 211 213 214 218 221 224 227 230
260 264 279 288 285 282 281 278 267 256 255 260 262 263 265 273 282 276 269 269 267 263 266 272 276 278 277 274 272 268 264 264 262 259 256 249 242 242 242 235 229 227 229 227 220 217 216 214 212 212 212 209 205 204 205 207 209 210 210 209 209 210 209 210 208 201 197 200 205 208 206 203 199 197 199 196 195 194 192 192 191 191 194 203 210 210 215 215 210 213 213 214 216 218 221 224 227
315 296 295 288 283 283 277 274 268 256 256 252 250 262 271 279 281 271 268 270 273 264 264 275 282 284 281 276 273 269 266 261 260 261 259 251 234 230 236 231 228 230 227 224 220 219 221 216 213 215 215 211 206 204 208 208 208 210 209 208 208 207 208 211 207 199 199 201 205 208 207 209 206 198 199 197 195 195 193 196 197 199 203 210 215 214 216 213 210 214 213 213 215 214 218 221 221
299 297 297 283 279 278 271 269 266 254 254 248 244 262 274 276 262 256 265 268 269 267 269 276 282 286 284 280 276 270 265 259 256 254 251 247 234 227 230 226 228 232 231 229 224 218 219 216 215 218 214 211 210 207 211 211 206 208 208 206 208 206 207 212 209 201 201 202 204 209 212 215 213 204 201 201 199 198 198 204 207 208 211 215 217 217 216 211 209 212 212 212 212 211 216 218 216
281 285 287 282 280 276 269 266 261 252 239 194 227 265 270 260 244 247 257 261 261 261 267 273 276 282 285 282 278 273 269 265 261 255 249 248 240 236 239 236 231 230 236 238 231 220 218 216 216 217 211 209 213 210 210 211 205 204 206 206 209 207 206 211 211 203 204 203 205 215 219 217 214 209 207 208 207 205 206 211 212 213 214 216 218 218 215 211 209 211 212 212 211 211 215 217 214
273 276 268 280 284 275 272 265 249 246 197 140 192 270 278 272 266 267 274 271 256 256 273 283 281 282 282 281 277 273 272 270 269 268 264 257 243 239 245 250 243 235 237 235 230 228 223 221 219 215 209 209 213 211 208 208 206 204 205 206 207 206 204 208 210 206 207 207 209 221 223 217 215 212 209 212 213 211 212 215 215 215 216 217 219 218 216 213 211 214 213 211 213 213 214 218 213
270 277 252 261 273 274 280 259 175 203 158 153 207 260 278 284 287 290 314 321 248 267 283 287 284 282 279 274 273 271 270 270 274 276 274 268 257 249 248 255 254 247 244 232 231 236 227 222 221 217 214 212 211 211 206 205 206 205 204 205 204 204 204 207 209 206 207 209 213 224 225 219 215 213 211 214 216 215 215 217 218 218 217 218 219 219 217 214 213 215 214 211 212 210 211 216 210
261 272 260 249 257 274 282 245 199 232 190 169 207 260 274 276 288 294 309 290 269 276 283 284 282 280 276 272 270 269 271 275 279 278 277 275 269 264 260 262 261 254 252 243 235 237 225 220 223 224 222 215 209 210 208 206 207 206 205 207 206 205 205 207 207 206 208 211 213 222 225 220 216 215 214 216 218 218 217 219 220 219 219 219 219 219 216 212 212 213 213 211 210 205 206 211 206
248 251 261 261 266 281 285 267 250 254 167 185 211 255 279 278 288 292 296 292 287 285 283 281 281 279 275 274 271 271 275 279 281 279 283 285 281 280 280 278 274 266 261 254 244 238 228 220 223 227 225 215 210 211 209 208 206 205 205 207 206 204 205 206 207 207 209 213 212 217 223 221 219 218 217 218 220 220 219 220 222 221 221 220 219 218 215 211 210 211 210 210 209 204 203 206 201
257 253 261 260 261 277 287 292 299 175 196 230 231 246 265 273 280 284 285 285 286 285 281 278 280 282 278 276 274 275 278 281 286 297 303 305 307 311 309 306 301 290 278 266 251 244 238 223 218 224 221 211 209 210 208 208 207 207 208 209 208 208 209 208 208 208 210 216 214 216 223 224 222 220 219 220 221 221 221 221 222 222 222 220 218 218 213 209 210 211 209 208 206 203 203 205 200
276 281 284 280 273 283 290 292 301 282 271 275 268 263 272 280 282 281 281 282 281 278 277 279 284 286 282 276 275 277 279 284 312 329 323 330 338 339 337 334 331 322 310 291 266 250 244 227 211 217 217 208 206 208 206 204 207 211 212 213 212 212 213 213 212 211 214 219 218 219 225 226 225 222 221 222 222 222 223 222 221 222 222 219 216 216 211 207 209 209 209 207 203 201 204 203 198
279 288 291 290 285 284 287 286 291 294 290 286 282 280 286 292 291 287 282 279 275 272 277 286 288 282 277 274 277 285 292 334 6 334 338 1 6 360 356 356 358 3 11 8 339 270 242 229 201 203 211 205 200 202 201 201 206 210 212 214 215 216 217 217 217 219 223 222 220 224 228 228 227 225 223 224 224 223 223 223 221 222 222 218 215 215 211 209 210 209 208 207 202 198 197 197 196
281 287 284 281 280 279 282 282 283 290 289 282 285 288 292 297 294 284 275 272 273 274 279 284 280 272 271 276 296 10 42 15 333 339 30 44 34 25 22 21 24 29 28 27 23 15 350 258 214 202 202 197 195 197 197 200 204 208 212 216 220 221 219 219 220 222 225 226 222 225 230 229 228 227 226 225 225 223 222 223 222 221 221 219 217 217 214 212 212 210 207 207 205 199 193 191 193
280 281 280 277 277 279 281 281 284 294 293 282 288 292 294 297 289 278 273 272 272 273 275 270 266 271 283 338 27 26 6 331 13 63 67 62 51 41 39 36 33 32 28 27 25 21 18 14 341 252 198 195 201 203 202 205 209 211 215 221 225 225 223 221 222 222 225 226 224 226 231 232 231 230 229 227 226 224 222 222 223 223 222 220 219 218 216 214 213 210 206 205 206 203 198 194 190
276 275 275 273 278 283 283 282 284 301 297 290 298 298 295 287 277 277 281 271 257 256 257 254 261 287 341 19 357 341 25 74 76 69 62 59 54 45 41 39 34 31 29 27 26 26 28 28 26 21 38 192 214 216 216 222 226 223 225 231 228 225 227 224 225 225 223 223 225 232 235 236 235 234 231 229 227 226 225 224 225 226 225 221 219 217 215 215 213 211 208 205 202 200 201 200 197
261 258 266 272 281 284 285 292 293 292 283 290 301 296 285 275 265 270 276 254 241 249 253 255 275 15 15 359 2 31 69 78 67 56 48 48 48 43 40 38 33 29 26 24 23 26 30 30 31 33 39 35 348 239 234 244 249 235 229 241 238 229 236 232 227 226 225 229 232 237 240 240 239 237 235 234 231 230 229 228 227 228 228 224 221 219 216 215 215 212 210 207 200 195 197 203 204
256 254 261 269 277 281 289 302 305 301 288 289 306 295 283 270 218 149 212 239 259 264 259 235 85 87 92 66 59 62 67 66 58 49 40 38 39 39 39 36 33 29 23 20 20 24 28 29 33 41 51 47 29 15 291 269 258 250 231 246 252 248 251 249 241 234 230 234 237 240 244 242 241 240 238 237 236 234 231 229 228 229 230 227 224 222 220 218 217 214 211 208 205 202 198 199 205
269 262 262 267 277 288 295 303 309 304 287 356 360 315 290 125 267 290 291 276 272 272 278 88 88 84 82 78 72 66 60 56 52 46 39 36 35 35 36 34 32 28 21 16 17 23 27 28 32 40 52 52 39 32 7 323 282 276 268 266 271 269 264 258 252 249 241 239 239 240 244 245 244 243 241 239 238 237 235 231 229 229 229 229 226 224 223 222 219 217 214 210 210 210 204 199 203
273 283 300 284 287 297 298 303 306 294 288 333 16 305 280 269 276 278 272 263 267 290 52 68 68 71 72 66 62 57 53 50 45 43 39 36 34 33 34 33 32 28 20 15 17 23 27 29 32 37 47 49 40 34 28 11 343 310 293 287 288 288 285 282 279 272 260 253 247 239 238 242 246 245 241 240 240 239 237 234 231 230 229 229 228 225 224 224 223 221 218 215 214 213 209 204 203
269 12 4 323 306 302 302 305 289 277 293 290 243 231 263 283 280 245 230 254 274 54 68 70 63 61 62 60 61 55 48 48 44 41 37 33 33 33 33 33 32 31 25 19 17 20 26 30 32 37 45 45 36 30 29 20 2 345 324 308 300 297 296 296 299 296 278 261 249 240 234 237 247 248 241 238 240 240 239 237 234 233 231 230 229 226 224 225 225 223 220 218 216 214 212 211 210
292 44 0 338 321 299 300 294 281 285 294 286 213 194 254 285 279 196 221 250 61 77 79 80 67 53 54 60 62 55 47 46 45 43 39 34 31 31 32 33 31 31 28 22 18 19 27 31 32 38 44 42 35 28 24 18 7 354 337 326 317 311 309 306 304 301 293 275 253 243 236 232 243 251 248 241 238 239 241 240 236 234 233 232 230 229 228 227 227 225 222 219 217 216 216 216 215
19 32 319 303 264 263 269 266 280 290 276 274 224 192 242 295 281 208 194 190 100 97 90 84 78 65 59 57 55 54 50 47 44 43 39 35 32 29 30 33 31 30 27 24 21 22 28 31 30 35 40 41 35 28 22 16 8 359 347 338 327 318 316 314 310 305 300 290 273 258 246 238 234 241 249 247 242 242 244 242 239 237 237 235 233 232 231 229 228 227 225 223 221 219 219 219 219
3 310 296 286 261 247 248 252 271 275 265 278 234 198 219 291 306 305 111 92 84 106 105 93 83 75 64 52 50 50 48 47 43 40 37 33 31 29 29 31 30 29 27 24 21 22 28 30 30 35 39 41 37 30 23 17 10 3 355 345 334 326 322 316 312 309 306 299 290 280 267 255 241 235 241 247 249 248 245 243 242 241 240 238 236 235 234 231 229 229 229 227 224 222 221 220 221
273 279 293 298 278 239 238 227 204 250 262 326 36 186 221 252 289 50 106 82 64 81 107 103 87 77 66 55 51 45 45 47 43 39 34 30 27 25 26 27 27 26 25 24 21 21 26 28 30 36 39 39 38 33 26 19 14 7 360 352 344 337 330 323 317 312 310 305 298 293 286 275 260 246 235 240 253 254 247 245 245 242 241 240 238 238 237 235 233 233 232 229 226 224 223 222 222
219 244 263 287 285 259 257 243 222 251 246 92 68 100 242 251 264 271 273 74 74 77 94 102 95 84 75 66 60 51 49 48 46 41 34 32 30 25 25 24 23 24 24 24 23 22 24 25 30 36 36 34 34 34 30 24 18 11 4 358 353 346 339 334 327 321 317 311 305 302 297 289 280 269 249 245 258 262 254 249 248 246 244 244 241 239 240 238 236 234 234 233 230 228 226 224 224
191 224 242 258 279 280 274 272 269 267 269 91 96 5 269 264 265 263 263 84 88 88 86 91 92 91 87 80 72 63 58 53 51 46 35 34 32 29 28 24 21 22 21 22 22 21 22 25 31 36 34 32 32 33 31 27 21 15 9 2 358 354 348 343 338 332 325 318 314 310 306 300 293 288 277 265 265 266 264 258 255 253 250 247 244 242 242 241 239 237 236 236 234 232 230 228 228
198 251 296 261 275 280 278 285 285 287 307 315 251 205 270 288 46 89 95 90 91 90 90 92 90 91 90 82 75 66 61 57 54 53 44 37 32 28 26 22 22 22 20 21 20 18 21 26 31 34 33 32 34 34 32 29 25 21 16 11 6 2 355 349 345 338 328 322 320 316 310 305 299 296 293 286 276 269 270 268 261 258 255 251 247 245 244 243 240 239 238 239 238 236 234 232 232
247 56 76 252 220 196 248 267 274 295 306 292 254 238 274 287 73 107 104 96 95 92 91 93 89 89 87 75 68 62 60 57 52 53 46 39 36 28 21 20 23 24 21 19 16 17 22 28 32 33 31 30 32 32 30 30 31 30 26 22 18 16 10 0 351 343 336 330 326 320 313 305 301 298 295 293 286 273 273 276 270 264 261 256 251 247 246 244 242 241 240 240 240 239 237 236 235
127 173 203 230 111 152 243 259 250 265 276 270 251 256 266 272 252 138 111 95 95 91 84 85 82 84 83 73 68 61 58 57 49 48 43 37 34 26 22 23 24 22 16 13 16 20 25 29 31 31 29 26 25 24 23 24 30 31 27 25 26 27 25 19 10 359 348 338 330 323 317 310 305 302 297 294 289 276 274 280 277 270 265 260 254 250 248 247 244 243 242 241 241 240 239 239 237
141 200 216 48 40 124 242 256 233 230 255 257 250 262 265 265 261 138 113 103 100 92 85 86 82 81 81 77 75 69 61 55 47 45 38 29 26 21 22 24 23 17 7 10 19 23 28 31 32 30 28 24 19 17 16 15 18 19 15 16 23 27 28 26 22 16 7 356 343 331 320 313 308 304 301 297 291 281 278 280 277 272 268 263 259 254 251 249 247 245 244 244 243 242 242 241 240
158 231 334 94 254 249 222 232 240 240 255 259 249 264 267 250 253 192 128 119 115 111 104 99 94 93 95 95 93 82 74 63 50 53 38 19 22 19 17 16 14 13 10 14 21 25 30 33 32 31 29 25 22 21 21 15 11 9 7 10 17 22 25 24 22 19 14 6 356 345 333 323 313 307 303 298 293 285 281 281 278 275 271 266 262 259 255 251 248 246 247 246 244 242 241 242 241
83 239 260 119 249 267 248 227 234 244 258 264 251 258 260 254 283 112 122 119 124 128 121 114 111 111 112 114 116 116 116 119 120 136 163 346 14 7 3 360 359 4 5 7 14 21 28 29 28 28 26 25 26 25 22 14 8 9 13 18 21 21 22 20 17 14 10 6 2 356 347 336 327 318 310 302 296 290 285 283 279 276 273 268 264 261 258 254 250 249 248 247 245 243 241 241 242
192 210 220 210 209 240 266 248 224 240 256 261 256 254 246 260 7 76 110 111 119 121 117 117 113 111 110 109 116 123 119 119 133 147 24 357 350 346 343 336 335 342 351 359 8 13 17 19 17 17 20 21 19 17 15 11 10 13 16 19 20 19 17 14 11 9 6 3 1 358 353 347 339 331 323 312 303 296 291 287 283 278 274 270 266 263 260 257 253 252 251 248 247 245 242 242 242
271 235 225 230 230 207 242 244 224 223 248 254 259 260 242 75 13 57 94 94 96 99 102 107 102 99 99 91 87 87 77 65 48 33 17 351 335 328 321 324 336 348 356 1 6 8 7 7 6 8 13 13 12 11 10 11 12 13 14 15 14 13 11 7 4 2 360 359 357 355 355 353 349 342 334 324 314 304 296 291 285 281 277 273 269 264 261 257 254 254 253 251 249 246 243 243 243